Home > Time Zones > World Clock > Weather > Norway > Tau > Past weeks

Flag for Norway Weather past 2 weeks in Tau, Norway

Now
63 °F

Broken clouds.


Feels Like: 63 °F
Forecast: 53 / 63 °F
Wind: 8 mph from West

Location: Stavanger / Sola

Current Time: Jul 31, 2014 at 6:27:50 PM

Latest Report: Jul 31, 2014 at 5:50 PM


Visibility: N/A

Pressure: 29.77 "Hg

Humidity: 73%

Dew point: 54 °F

Location of TauLocation

Historic Weather in Tau — Graph

°F

Tau temperature yesterday

Maximum temperature yesterday: 68 °F (at 3:50 PM)
Minimum temperature yesterday: 61 °F (at 2:50 AM)
Average temperature yesterday: 64 °F

Past Weeks' High & Low Weather Summary

 TemperatureHumidityPressure
High84 °F (Jul 20, 3:20 PM)100% (Jul 28, 6:20 AM)30.30 "Hg (Jul 28, 6:20 AM)
Low55 °F (Jul 19, 4:50 AM)37% (Jul 20, 1:20 PM)29.68 "Hg (Jul 31, 1:50 AM)
Average69 °F69%30.03 "Hg
* Reported Jul 16 5:20 PM — Jul 31 5:20 PM, Tau, Weather by CustomWeather, © 2014

Note: Actual official high and low records may vary slightly from our data, if they occured in-between our weather recording intervals... More about our weather records

Advertising

Tau weather history for previous 24 hours

 ConditionsComfort  
Time TempWeatherWind HumidityBarometerVisibility
5:20 PM
Jul 31
64 °FBroken clouds.10 mph68%29.77 "HgN/A
4:50 PM66 °FBroken clouds.10 mph64%29.77 "HgN/A
4:20 PM64 °FBroken clouds.12 mph68%29.77 "HgN/A
3:50 PM64 °FBroken clouds.10 mph68%29.77 "HgN/A
3:20 PM64 °FBroken clouds.12 mph73%29.77 "HgN/A
2:50 PM63 °FBroken clouds.12 mph73%29.77 "HgN/A
2:20 PM63 °FBroken clouds.12 mph73%29.77 "HgN/A
1:50 PM64 °FPartly sunny.10 mph73%29.74 "HgN/A
1:20 PM64 °FBroken clouds.12 mph64%29.74 "HgN/A
12:50 PM64 °FBroken clouds.14 mph64%29.74 "HgN/A
12:20 PM64 °FBroken clouds.14 mph68%29.74 "HgN/A
11:50 AM63 °FBroken clouds.9 mph77%29.74 "HgN/A
11:20 AM63 °FScattered showers. Broken clouds.7 mph73%29.74 "HgN/A
10:50 AM59 °FScattered showers. Broken clouds.8 mph82%29.74 "HgN/A
10:20 AM59 °FSprinkles. Broken clouds.9 mph82%29.74 "HgN/A
9:50 AM59 °FScattered showers. Broken clouds.6 mph82%29.71 "HgN/A
9:20 AM59 °FSprinkles. Broken clouds.17 mph82%29.71 "HgN/A
8:50 AM63 °FScattered showers. Scattered clouds.10 mph68%29.71 "HgN/A
8:20 AM63 °FScattered showers. Scattered clouds.9 mph68%29.71 "HgN/A
7:50 AM61 °FBroken clouds.9 mph72%29.71 "HgN/A
7:20 AM63 °FScattered showers. Broken clouds.12 mph73%29.71 "HgN/A
6:50 AM61 °FScattered showers. Broken clouds.10 mph83%29.68 "HgN/A
6:20 AM61 °FSprinkles. Partly cloudy.10 mph83%29.68 "HgN/A
5:50 AM63 °FScattered showers. Partly cloudy.8 mph73%29.68 "HgN/A
5:20 AM61 °FScattered showers. Partly cloudy.7 mph77%29.68 "HgN/A
4:50 AM61 °FPassing clouds.6 mph83%29.68 "HgN/A
3:50 AM59 °FScattered showers. Partly cloudy.3 mph94%29.68 "HgN/A
2:50 AM57 °FScattered showers. Partly cloudy.2 mph94%29.71 "HgN/A
1:50 AM61 °FPartly cloudy.6 mph77%29.68 "HgN/A
12:50 AM63 °FPartly cloudy.7 mph73%29.71 "HgN/A
11:50 PM
Jul 30
63 °FPartly cloudy.8 mph73%29.71 "HgN/A
11:20 PM63 °FPartly cloudy.12 mph68%29.71 "HgN/A
10:50 PM63 °FScattered showers. Broken clouds.12 mph73%29.71 "HgN/A
10:20 PM63 °FScattered showers. Broken clouds.13 mph77%29.71 "HgN/A
9:50 PM61 °FSprinkles. Partly sunny.10 mph83%29.71 "HgN/A
9:20 PM64 °FScattered showers. Partly sunny.12 mph64%29.71 "HgN/A
8:50 PM64 °FScattered showers. Cloudy.10 mph68%29.71 "HgN/A
8:20 PM64 °FScattered showers. Broken clouds.10 mph68%29.71 "HgN/A
7:50 PM64 °FScattered showers. Broken clouds.12 mph68%29.71 "HgN/A
7:20 PM64 °FScattered showers. Broken clouds.12 mph68%29.71 "HgN/A
6:50 PM64 °FScattered showers. Broken clouds.8 mph68%29.71 "HgN/A
6:20 PM66 °FScattered showers. Broken clouds.13 mph64%29.71 "HgN/A
Weather by CustomWeather, © 2014

See weather overviewHow to use our weather pages